Location: Grossmotten
(48.5500°N, 15.3833°E)
Time: 00:48:51
(UTC+00:00)

CZ-4B R/B - Pass Details

Date: 15 November 2019
Orbit: 486 x 653 km, 97.8° (Epoch: 15 December)

Event Time Altitude Azimuth Distance (km) Brightness Sun altitude
Rises 03:58:38 0° 11° (N) 2,574 6.3 -20.9°
Reaches altitude 10° 04:00:43 10° 8° (N) 1,685 5.3 -20.6°
Enters shadow 04:04:07 65° 306° (NW) 542 2.5 -20.0°
